Tracking 25195 objects as of 19-Jan-2022
HD Live streaming from Space Station
objects crossing your sky now

METEOR 2-12

Track METEOR 2-12 now!
10-day predictions
METEOR 2-12 is classified as:


NORAD ID: 15516
Int'l Code: 1985-013A
Perigee: 938.9 km
Apogee: 963.2 km
Inclination: 82.5 °
Period: 103.9 minutes
Semi major axis: 7322 km
RCS: 5.2452 m2 (large)
Launch date: February 6, 1985
Source: Commonwealth of Independent States (former USSR) (CIS)
Launch site: PLESETSK MISSILE AND SPACE COMPLEX (PKMTR)
aabbcc
Your satellite tracking list
Your tracking list is empty




NASA's NSSDC Master Catalog

Two Line Element Set (TLE):
1 15516U 85013A   22019.44392605  .00000033  00000-0  15738-4 0  9996
2 15516  82.5322 176.4252 0016586 126.3461 233.9234 13.85654957869112
Source of the keplerian elements: AFSPC